Dewpoint
7 8 -3 1 6 8 8 9 8 2 0 0 -0 -0 0 1 2 2 1 1 5 6 7 7 7 7 7 9 9 9 10 9 9 9 5 2 -0 -2 -1 1 9 9 -0
8 9 -3 -1 5 8 9 10 8 4 7 8 8 8 5 3 0 1 2 2 2 4 6 6 7 7 6 8 9 8 7 8 9 9 9 10 5 2 0 -1 -1 1 1
9 9 4 4 9 9 9 9 6 6 8 8 8 7 7 7 7 5 2 2 3 3 3 3 4 5 6 6 6 7 7 7 7 9 10 11 12 7 4 1 0 6 3
11 10 10 8 9 9 10 7 6 7 8 8 7 6 4 3 4 6 6 5 3 3 3 3 3 3 3 3 4 4 5 6 8 10 11 10 11 9 7 5 3 2 3
11 11 9 11 11 10 10 7 8 8 8 7 4 1 -1 -1 -1 1 2 4 5 5 5 4 3 3 4 5 4 4 6 8 9 11 11 12 12 11 9 8 9 5 2
11 11 9 11 11 10 9 9 8 7 6 3 -2 -6 -7 -7 -7 -6 -4 -2 1 3 4 5 6 6 6 6 6 6 8 8 10 10 12 11 10 10 10 10 8 7 6
10 10 10 7 8 10 8 8 6 4 1 -5 -11 -11 -10 -10 -11 -11 -11 -11 -7 -3 -1 1 2 4 6 7 7 7 8 8 8 8 8 10 9 10 10 11 11 10 9
9 9 9 5 6 3 5 6 4 -1 -6 -12 -11 -10 -7 -6 -6 -5 -6 -7 -9 -10 -9 -8 -7 -5 -2 0 3 4 5 5 6 7 7 8 -2 -1 4 10 10 10 10
8 6 8 8 -2 4 5 4 1 -4 -8 -8 -7 -6 -5 -4 -3 -3 -4 -4 -5 -6 -7 -7 -7 -7 -7 -7 -8 -8 -7 0 3 5 5 7 2 -0 -5 -7 5 10 10
2 -0 1 4 1 4 5 2 -2 -5 -7 -5 -4 -3 -3 -2 -3 -3 -3 -4 -5 -7 -8 -7 -7 -8 -9 -9 -9 -8 0 2 4 4 6 7 6 6 6 -3 -7 -4 4
-3 0 2 -4 -2 1 2 -2 -4 -6 -5 -3 -2 -2 0 3 3 -3 -4 -5 -7 -10 -9 -8 -9 -10 -7 -8 -9 -8 1 3 3 4 5 -1 3 6 6 5 -1 -4 -5
-0 -1 -4 -3 -5 -4 0 -6 -7 -1 2 1 -1 -2 1 -3 -3 -4 -5 -6 -8 -11 -11 -10 -10 -9 -3 -2 -1 -0 2 3 3 4 -0 -1 -1 5 6 5 6 4 1
-1 -1 -0 -8 -8 -0 -0 2 2 2 2 -2 -2 -4 -5 -6 -4 -2 -3 -5 -8 -10 -4 -6 -4 -6 -7 -2 -0 -0 2 2 3 4 -1 -1 -1 -0 5 4 4 4 4
0 0 1 -0 -9 -1 1 1 2 2 2 2 -2 -5 -12 -9 -11 -5 -5 -6 -6 -6 -5 -3 -4 -5 -5 -5 -5 -5 -4 1 1 2 -2 -1 -3 -3 0 2 4 4 4
2 2 1 -3 -6 -9 2 2 3 3 3 0 -1 -7 -8 -8 -8 -7 -6 -5 -4 -4 -3 -3 -3 -3 -3 -3 -3 -4 -4 -5 -4 -1 -1 -8 -9 -8 -5 -3 -1 2 4
3 3 1 -2 -4 -5 1 2 3 3 -1 3 -0 -9 -6 -5 -5 -4 -3 -3 -3 -3 -3 -3 -3 -2 -2 -2 -2 -3 -3 -4 -6 -7 -4 -4 -8 -8 -7 -5 -2 -1 -1
4 3 -7 -3 -2 -3 -1 -1 4 3 3 2 -4 -7 -5 -5 -4 -4 -3 -3 -3 -3 -2 -1 -1 -1 -1 -2 -2 -2 -3 -3 -3 -5 -4 -5 -6 -7 -10 -8 -7 -5 -3
4 -1 -7 -4 -2 -4 1 1 4 3 3 2 -4 -5 -5 -5 -5 -4 -3 -3 -3 -3 -2 -2 -1 -1 -1 -1 -1 -2 -3 -3 -3 -4 -4 -6 -6 -7 -8 -9 -14 -14 -11
5 1 -5 -7 -4 -3 -4 3 4 -0 3 2 -5 -6 -6 -6 -5 -4 -4 -3 -2 -1 -1 0 1 1 0 -0 -2 -2 -2 -2 -3 -4 -4 -5 -5 -6 -7 -7 -10 -11 -13
5 2 -3 -6 -4 -4 -2 -1 4 4 4 -1 -2 -3 -4 -5 -5 -4 -3 -2 0 1 2 1 1 1 0 0 -1 -1 -1 -2 -3 -3 -4 -5 -5 -6 -6 -6 -7 -8 -8
6 3 -1 -6 -6 -4 2 2 3 3 3 2 -2 -3 -3 -4 -4 -4 -3 1 2 3 2 1 1 1 0 0 -1 -1 -2 -2 -2 -3 -5 -5 -5 -5 -6 -6 -6 -7 -8
6 5 -0 -2 -8 -0 2 1 1 2 2 2 -5 -5 -5 -5 -3 -3 -2 2 3 2 2 1 0 1 1 -0 -1 -2 -3 -5 -4 -8 -5 -7 -5 -5 -7 -6 -6 -6 -6
7 6 2 -2 -6 -1 2 2 3 3 1 -2 -0 1 -2 0 1 -1 1 3 2 1 1 0 0 1 0 -1 -1 -2 -4 -6 -7 -8 -9 -8 -7 -7 -7 -7 -9 -6 -6
7 6 4 -1 -4 -3 1 3 4 3 3 3 3 2 2 2 2 1 2 2 1 1 1 0 1 0 -1 -2 -3 -4 -5 -6 -8 -8 -9 -11 -11 -11 -10 -9 -10 -7 -6
7 6 5 -1 -2 -6 -8 3 3 3 3 4 4 2 2 2 3 2 2 2 1 1 1 1 2 -2 -4 -5 -8 -9 -11 -12 -12 -11 -12 -13 -14 -14 -13 -12 -9 -8 -6
7 6 5 -0 -1 -5 -7 1 4 4 3 4 3 2 2 3 3 3 2 2 1 1 1 2 -1 -5 -10 -8 -11 -11 -12 -12 -13 -13 -13 -14 -13 -13 -13 -12 -10 -9 -9
Wind_Speed
6 5 6 7 6 7 3 4 6 6 7 7 7 7 7 7 6 6 8 8 9 10 11 11 11 10 10 10 11 11 11 12 11 11 13 14 14 13 12 11 16 7 7
9 7 7 7 8 7 4 3 5 7 9 9 9 9 9 9 9 9 9 9 9 9 9 9 9 9 8 8 8 9 10 11 12 10 13 17 13 13 12 11 9 8 8
9 8 8 11 9 5 2 3 5 7 7 8 8 8 8 8 9 9 9 9 9 8 8 7 8 7 8 7 7 7 8 9 10 12 13 8 9 12 11 10 9 9 8
9 10 8 12 8 4 3 5 5 6 6 6 6 6 7 7 8 8 9 9 8 8 8 8 8 8 8 8 7 8 8 8 9 14 9 9 9 10 10 9 9 9 8
9 8 13 12 8 4 1 4 5 5 5 5 6 7 7 8 8 9 9 10 10 10 10 10 10 10 10 9 9 9 10 10 14 11 7 8 7 9 8 8 8 7 6
9 7 9 11 7 3 2 6 5 5 5 5 6 7 9 9 10 10 10 11 11 11 11 12 12 12 12 11 11 10 10 12 13 11 14 13 13 11 8 7 6 7 7
8 7 6 7 8 5 5 6 6 6 6 7 8 10 11 12 13 14 13 12 11 10 11 11 11 11 11 12 11 11 11 12 13 12 12 15 13 13 13 8 8 8 8
7 6 4 5 4 3 6 6 7 8 8 10 12 12 12 13 14 15 17 18 18 17 15 13 13 12 12 11 11 12 11 14 14 14 14 16 12 11 9 10 9 9 9
6 5 6 5 6 8 8 8 9 8 9 12 12 12 13 14 14 15 17 19 20 20 20 19 19 19 18 17 17 17 16 19 16 16 16 16 17 16 13 10 8 7 9
7 6 7 8 9 11 10 9 9 8 9 10 11 12 12 13 14 16 17 18 19 18 18 18 18 18 17 17 17 16 21 19 15 14 16 18 21 21 20 17 14 11 8
9 9 10 11 12 12 9 10 9 8 8 9 10 11 11 11 12 14 16 15 17 17 18 18 18 17 18 18 18 17 18 14 14 13 15 16 17 19 20 20 19 17 15
11 12 12 12 12 12 9 10 11 11 10 10 10 9 9 11 12 13 13 14 16 18 18 19 18 17 16 14 13 16 13 13 13 13 14 14 15 17 18 19 20 20 18
12 12 12 12 12 11 11 11 11 11 10 10 10 11 11 11 11 11 12 13 15 17 14 16 17 19 20 16 15 15 13 12 11 10 14 13 14 15 15 14 14 16 17
13 12 12 11 12 12 11 10 11 10 9 8 9 11 12 12 14 14 13 14 15 16 16 14 16 18 18 17 17 16 15 12 10 8 12 12 14 14 13 13 12 14 15
13 14 12 12 12 13 12 11 11 10 9 9 10 11 12 14 15 15 16 16 16 15 15 14 15 15 15 16 16 14 14 13 12 9 10 13 15 16 16 14 12 11 12
13 14 13 13 12 12 11 12 11 10 10 9 10 12 13 13 15 15 15 15 15 14 14 14 14 12 14 12 15 16 14 12 11 9 8 13 15 16 16 15 14 13 12
14 14 14 14 13 12 12 12 10 10 10 9 11 12 12 12 12 12 12 12 12 12 13 12 12 12 11 11 13 14 10 12 9 10 9 10 11 19 18 15 15 15 14
15 13 14 15 15 13 12 12 10 10 9 9 10 11 10 9 9 8 8 9 10 10 10 12 12 11 11 11 10 10 8 8 8 10 10 12 13 14 15 18 16 18 17
17 14 13 16 16 15 13 12 12 12 9 9 10 9 8 7 6 5 6 8 10 10 12 12 13 12 12 13 12 11 8 8 7 9 10 13 14 13 14 17 21 19 15
17 15 13 16 18 16 14 13 12 11 10 11 10 9 8 6 4 3 5 7 9 9 11 13 12 11 12 14 12 14 10 7 9 8 14 13 14 15 15 17 15 13 21
19 18 15 18 20 18 15 14 13 12 11 10 10 9 7 5 3 2 4 6 9 11 14 15 13 13 14 17 12 16 12 11 8 10 18 13 15 14 18 17 16 14 12
22 21 17 17 19 18 15 14 13 12 11 10 11 9 7 5 2 0 2 6 9 12 13 15 17 14 14 15 15 15 14 14 5 24 11 16 13 19 17 18 17 15 15
25 24 21 18 18 18 17 16 14 13 13 12 11 8 7 5 2 2 3 5 7 6 10 14 16 17 16 12 14 12 12 15 23 5 15 14 19 19 18 17 16 16 14
27 26 24 20 19 20 20 18 17 14 12 11 11 9 7 5 4 5 8 8 8 10 12 13 18 18 15 13 13 12 11 15 19 17 16 18 18 19 18 17 16 14 12
27 28 28 24 21 20 21 18 17 15 13 12 12 10 9 8 8 9 10 10 10 10 15 18 19 20 12 12 12 14 14 13 13 16 22 20 19 18 17 17 13 12 11
26 28 31 29 25 22 22 21 19 17 15 14 13 11 10 10 10 12 12 11 11 13 16 18 19 17 15 11 12 11 11 13 14 14 16 18 19 18 17 12 13 12 13
Wind_Direction
138 151 143 134 125 111 91 68 59 68 78 77 74 74 73 70 68 60 59 65 67 68 66 65 67 67 65 63 60 59 57 50 47 48 48 48 49 49 50 56 68 35 55
135 132 134 125 112 116 135 95 72 72 74 75 74 71 66 64 63 64 65 67 68 67 66 63 63 60 58 55 54 50 42 38 36 38 45 27 37 45 42 46 43 44 44
125 124 122 108 100 115 100 89 82 87 82 74 66 61 62 63 66 68 69 68 70 72 72 65 58 54 52 49 40 34 31 34 33 43 56 47 21 29 33 35 37 38 34
127 120 120 115 121 125 121 69 86 86 77 64 56 50 49 55 58 64 68 73 76 75 71 66 60 54 51 46 39 35 35 33 45 54 35 28 19 13 18 25 21 24 27
121 123 130 118 133 139 153 106 97 85 67 54 45 47 58 66 68 69 66 69 73 71 68 64 60 56 54 52 49 47 47 55 50 46 28 35 28 350 9 10 8 4 13
122 116 139 132 137 167 128 120 101 83 70 65 59 62 68 68 67 67 67 68 69 70 68 65 62 59 57 56 55 56 60 66 54 33 40 29 25 18 2 358 351 347 345
130 126 138 146 167 165 122 111 100 95 84 69 72 76 75 72 72 73 73 75 75 73 70 66 62 57 55 52 51 49 52 64 57 51 35 33 32 26 28 15 353 335 322
142 133 131 163 169 152 138 129 116 102 84 77 75 76 79 76 76 76 76 76 76 77 75 70 64 59 54 48 43 40 38 57 50 48 44 30 19 358 356 14 1 347 339
152 148 140 140 145 148 147 136 119 103 88 79 77 78 81 79 78 77 75 75 75 73 73 71 69 65 61 59 56 54 53 67 52 49 42 37 26 24 14 4 348 348 357
142 138 143 138 146 149 152 142 128 115 100 87 83 81 84 81 81 82 80 76 73 70 70 70 67 64 59 55 53 51 58 46 54 49 42 39 34 33 28 25 19 4 341
138 140 141 142 143 144 141 143 140 119 105 96 92 87 85 93 83 84 79 76 73 72 72 71 68 64 60 50 50 48 56 51 48 46 42 32 35 31 25 19 18 18 9
144 143 145 136 140 136 131 131 136 125 121 112 101 94 95 98 97 90 85 82 78 78 73 72 69 65 63 54 42 43 46 50 44 42 35 25 23 27 23 16 14 10 11
152 149 147 146 142 135 139 128 124 123 120 112 99 99 105 104 102 95 90 85 80 76 71 65 61 57 54 54 47 48 44 41 40 30 20 14 10 11 20 14 7 6 8
155 152 150 146 142 143 137 134 131 129 124 114 107 97 101 103 105 101 93 84 77 72 67 60 53 51 47 45 42 39 37 40 37 29 11 5 359 355 357 2 9 4 359
161 161 158 154 146 149 140 142 141 133 128 123 111 111 113 111 107 101 94 86 79 70 63 59 53 50 44 38 35 33 29 25 22 28 1 351 348 347 345 339 337 351 4
168 168 168 164 156 151 154 146 142 139 132 126 124 121 116 111 106 101 92 84 75 67 60 54 50 44 39 35 23 19 18 17 10 12 13 351 345 341 337 331 326 324 327
172 174 175 174 169 158 156 152 145 143 136 131 135 128 125 115 107 100 92 82 69 54 46 44 39 34 32 25 15 7 12 9 7 0 6 359 352 342 328 317 316 315 312
175 178 178 180 179 168 167 157 150 149 143 139 140 142 134 124 113 100 84 69 55 43 35 30 32 23 17 8 358 357 357 357 359 359 354 352 342 345 340 323 318 309 302
181 179 181 183 183 176 171 162 159 163 148 150 147 146 144 134 123 99 71 48 41 32 25 25 14 18 9 358 346 336 336 337 348 339 351 348 343 347 339 333 336 336 312
189 187 186 184 185 181 175 170 163 159 162 162 157 156 150 142 128 94 52 36 37 37 18 7 10 11 7 355 351 337 304 319 329 337 336 331 336 343 343 342 343 325 330
195 197 191 188 188 186 177 171 169 168 168 169 174 171 168 164 140 78 31 17 12 360 356 360 6 359 355 352 343 344 333 315 309 331 321 328 321 336 332 329 331 325 321
200 201 198 192 195 184 177 174 168 168 166 170 176 177 179 170 161 13 1 354 349 341 344 346 352 359 353 350 352 343 333 331 328 320 321 323 322 326 324 325 326 319 316
201 205 203 197 195 187 179 175 173 175 184 185 186 185 181 180 193 235 289 298 309 337 344 346 347 348 353 348 355 357 339 330 322 306 323 320 315 319 326 325 327 328 323
202 203 203 201 197 192 187 185 185 182 184 190 188 196 197 210 239 258 268 278 307 330 340 341 338 347 349 345 347 334 323 315 320 314 312 318 317 320 318 318 320 325 331
197 202 201 202 200 197 194 189 190 188 187 185 186 203 215 230 248 260 274 285 305 321 328 328 333 335 351 350 342 336 329 323 315 312 314 318 320 320 320 315 326 315 318
196 200 200 202 202 199 195 193 192 193 188 183 195 212 221 233 249 262 269 277 294 310 318 321 332 335 341 347 343 337 331 328 325 324 320 322 321 326 325 332 317 316 322
Height
1582 1581 1580 1581 1581 1582 1582 1582 1581 1581 1580 1580 1580 1579 1578 1578 1577 1577 1576 1575 1575 1574 1574 1573 1573 1572 1572 1571 1570 1569 1569 1567 1566 1565 1565 1564 1563 1562 1561 1560 1559 1559 1556
1581 1582 1581 1581 1582 1584 1583 1583 1582 1582 1582 1581 1581 1580 1580 1579 1579 1578 1577 1577 1576 1576 1575 1575 1574 1574 1573 1572 1572 1571 1570 1569 1569 1568 1567 1566 1565 1563 1562 1562 1561 1560 1559
1581 1581 1582 1583 1585 1585 1585 1584 1584 1584 1583 1582 1582 1582 1581 1580 1579 1579 1578 1578 1578 1577 1576 1576 1575 1575 1574 1573 1573 1572 1572 1571 1570 1570 1570 1572 1569 1566 1565 1564 1563 1561 1561
1582 1582 1584 1584 1586 1586 1586 1586 1586 1585 1584 1584 1583 1583 1582 1582 1581 1580 1580 1579 1579 1578 1577 1576 1575 1575 1574 1574 1573 1573 1573 1572 1572 1572 1574 1574 1572 1567 1566 1566 1565 1563 1563
1584 1584 1583 1584 1585 1587 1586 1586 1586 1586 1586 1585 1585 1584 1583 1583 1582 1582 1581 1581 1580 1579 1578 1577 1577 1576 1576 1575 1575 1574 1574 1574 1574 1576 1576 1573 1571 1568 1567 1566 1566 1565 1564
1584 1585 1584 1585 1585 1586 1586 1586 1587 1587 1587 1587 1587 1586 1585 1584 1584 1584 1583 1583 1582 1581 1580 1579 1579 1578 1577 1576 1576 1576 1575 1576 1578 1578 1575 1572 1570 1569 1568 1567 1566 1565 1564
1584 1585 1585 1586 1586 1585 1585 1587 1588 1589 1588 1588 1588 1588 1587 1586 1586 1585 1585 1584 1584 1583 1582 1582 1581 1580 1580 1579 1578 1578 1577 1577 1579 1579 1578 1575 1571 1571 1569 1567 1566 1565 1564
1584 1585 1585 1586 1586 1586 1586 1587 1589 1590 1590 1590 1590 1589 1589 1588 1588 1587 1587 1586 1586 1585 1584 1584 1583 1582 1582 1581 1580 1580 1579 1579 1580 1580 1579 1576 1572 1571 1569 1568 1566 1564 1563
1583 1584 1586 1587 1587 1588 1588 1589 1590 1591 1592 1592 1592 1592 1591 1591 1590 1590 1589 1589 1588 1588 1587 1586 1586 1585 1584 1583 1582 1581 1581 1581 1583 1581 1580 1578 1574 1571 1569 1568 1566 1564 1563
1582 1583 1585 1587 1588 1589 1590 1590 1591 1592 1593 1593 1594 1594 1594 1594 1593 1592 1592 1592 1591 1591 1590 1589 1589 1588 1587 1586 1585 1584 1583 1584 1584 1583 1581 1579 1576 1574 1571 1569 1566 1565 1563
1581 1583 1584 1586 1588 1590 1591 1592 1593 1594 1595 1595 1596 1596 1597 1598 1597 1595 1594 1594 1594 1593 1593 1592 1591 1590 1589 1589 1587 1586 1586 1587 1586 1585 1582 1580 1578 1576 1574 1571 1568 1566 1563
1582 1583 1585 1586 1588 1590 1593 1593 1595 1596 1598 1598 1598 1598 1598 1597 1597 1597 1597 1597 1596 1595 1595 1594 1593 1593 1593 1593 1591 1589 1589 1588 1587 1585 1581 1581 1579 1578 1576 1573 1570 1567 1564
1583 1584 1585 1586 1588 1591 1592 1595 1597 1598 1599 1599 1599 1599 1599 1599 1599 1600 1599 1599 1598 1597 1598 1597 1596 1594 1593 1592 1591 1590 1590 1589 1588 1585 1582 1580 1579 1577 1576 1573 1571 1568 1565
1584 1585 1587 1588 1588 1590 1593 1597 1597 1599 1600 1601 1600 1600 1600 1600 1600 1601 1601 1600 1600 1599 1599 1599 1598 1596 1595 1594 1592 1591 1589 1589 1588 1587 1581 1580 1578 1576 1575 1573 1571 1569 1566
1584 1585 1587 1588 1589 1590 1593 1595 1598 1599 1601 1601 1601 1601 1602 1602 1602 1602 1602 1602 1602 1602 1602 1601 1600 1599 1597 1595 1594 1592 1590 1588 1586 1586 1582 1579 1577 1575 1573 1571 1569 1567 1566
1584 1585 1587 1588 1589 1591 1593 1595 1597 1600 1600 1602 1602 1602 1603 1603 1603 1604 1604 1604 1604 1604 1604 1603 1602 1600 1598 1597 1594 1592 1590 1588 1586 1584 1583 1579 1576 1574 1572 1569 1567 1565 1564
1583 1584 1585 1588 1590 1591 1593 1595 1598 1600 1602 1602 1602 1603 1604 1605 1605 1605 1605 1606 1606 1605 1605 1604 1603 1601 1600 1598 1595 1592 1591 1587 1586 1583 1582 1580 1578 1573 1569 1567 1565 1563 1561
1582 1582 1584 1586 1589 1591 1593 1595 1599 1600 1602 1603 1603 1604 1605 1606 1606 1607 1607 1607 1607 1606 1606 1605 1604 1603 1601 1599 1596 1593 1590 1588 1585 1583 1580 1577 1574 1573 1570 1564 1562 1560 1558
1580 1581 1583 1585 1588 1590 1592 1595 1597 1599 1602 1603 1603 1604 1605 1606 1607 1607 1608 1608 1607 1606 1605 1605 1603 1602 1601 1599 1597 1594 1590 1588 1585 1583 1580 1577 1573 1570 1567 1564 1559 1557 1555
1578 1580 1582 1584 1587 1589 1592 1594 1597 1600 1601 1603 1604 1605 1606 1606 1607 1608 1608 1608 1607 1607 1605 1604 1602 1601 1599 1597 1596 1593 1589 1586 1584 1582 1579 1576 1572 1569 1565 1562 1559 1558 1553
1575 1578 1580 1582 1585 1587 1590 1594 1597 1599 1601 1602 1604 1605 1606 1606 1607 1608 1608 1608 1607 1606 1604 1603 1602 1600 1598 1594 1594 1591 1587 1583 1581 1580 1578 1575 1571 1568 1565 1562 1559 1556 1554
1571 1575 1578 1581 1583 1587 1590 1594 1596 1598 1601 1602 1603 1604 1605 1606 1607 1607 1608 1607 1607 1605 1603 1602 1600 1599 1598 1594 1591 1588 1585 1583 1580 1578 1575 1573 1570 1566 1563 1560 1557 1554 1552
1567 1571 1575 1578 1581 1585 1589 1591 1594 1596 1598 1600 1602 1603 1605 1605 1606 1607 1607 1605 1604 1604 1602 1600 1598 1596 1596 1594 1591 1589 1585 1582 1579 1575 1573 1571 1568 1564 1560 1558 1555 1552 1550
1563 1567 1572 1576 1579 1582 1585 1589 1592 1595 1598 1600 1601 1602 1603 1604 1605 1605 1604 1603 1603 1602 1600 1598 1596 1595 1593 1593 1590 1589 1587 1584 1579 1572 1571 1568 1565 1562 1558 1556 1553 1551 1548
1560 1562 1567 1572 1576 1579 1582 1587 1590 1594 1597 1598 1599 1600 1602 1602 1603 1602 1602 1601 1601 1600 1598 1596 1594 1592 1591 1589 1587 1584 1583 1580 1577 1574 1568 1566 1563 1560 1556 1553 1551 1549 1546
1555 1558 1563 1567 1571 1575 1579 1583 1587 1591 1593 1595 1596 1598 1599 1599 1600 1600 1599 1599 1598 1597 1596 1593 1591 1588 1587 1585 1583 1581 1579 1577 1574 1571 1568 1565 1561 1558 1555 1552 1549 1548 1546